Tracking 17753 objects as of 29-June-2016
HD Live streaming from Space Station
objects crossing your sky now

GSAT 3 (EDUSAT)

Track GSAT 3 (EDUSAT) now!
GSAT 3 (EDUSAT) is classified as:


NORAD ID: 28417
Int'l Code: 2004-036A
Perigee: 36,064.0 km
Apogee: 36,092.3 km
Inclination: 4.5 °
Period: 1,450.7 minutes
Semi major axis: 42449 km
RCS: 15.8866 m2 (large)
Launch date: September 20, 2004
Source: India (IND)
Launch site: SIRHARIKOTA (SRI)

Interactive education for remote areas of India; 6 C-band and 6 Ku-band transponders; first satellite dedicated to education.
Your satellite tracking list
Your tracking list is empty





NASA's NSSDC Master Catalog

Two Line Element Set (TLE):
1 28417U 04036A   16179.83442682 +.00000066 +00000-0 +00000-0 0  9998
2 28417 004.5344 063.9901 0003331 103.7283 090.6552 00.99265741042967
Source of the keplerian elements: AFSPC

N2YO: 906